FW1003 Weather Reports


time (UTC)temp
C
wind
direction
speed
KPH
gust
KPH
rain 1hr
cm
rain 24hr
cm
rain mn
cm
humidity
%
barometer
mb
20260504081511 17 360 9.7 22.5 0.20 0.33 0.20 75 1017.7
20260504050019 20 152 6.4 25.7 0.00 0.13 0.00 47 1016.3
20260504044514 20 169 12.9 24.1 0.00 0.13 0.00 47 1016.1
20260504043004 19 183 11.3 22.5 0.00 0.13 0.00 47 1016.0
20260504041501 18 360 9.7 33.8 0.00 0.13 0.00 47 1016.0
20260504040128 18 136 4.8 9.7 0.00 0.13 0.00 49 1016.0
20260504034556 18 165 8.0 14.5 0.00 0.13 0.00 48 1016.1
20260504033051 18 179 8.0 17.7 0.00 0.13 0.00 49 1016.2
20260504031556 18 171 6.4 14.5 0.00 0.13 0.00 49 1016.0
20260504030029 18 165 4.8 17.7 0.00 0.13 0.00 49 1016.0
20260504024529 17 151 6.4 19.3 0.00 0.13 0.00 48 1016.0
20260504023028 17 170 3.2 11.3 0.00 0.13 0.00 49 1016.0
20260504021527 17 154 6.4 14.5 0.00 0.13 0.00 50 1015.9
20260504020023 17 148 1.6 20.9 0.00 0.13 0.00 54 1015.8
20260504014527 17 169 4.8 17.7 0.00 0.13 0.00 57 1015.6
20260504013020 18 360 3.2 11.3 0.00 0.13 0.00 59 1015.7
20260504011520 18 360 1.6 11.3 0.00 0.13 0.00 53 1015.7
20260504010014 18 360 8.0 22.5 0.00 0.13 0.00 51 1015.7
20260504004518 18 360 6.4 19.3 0.00 0.13 0.00 51 1015.7
20260504003012 18 179 6.4 19.3 0.00 0.13 0.00 47 1015.9
20260504001511 18 360 4.8 14.5 0.00 0.13 0.00 49 1016.0
20260504000006 18 360 3.2 12.9 0.00 0.13 0.00 50 1016.0
20260503234505 18 166 4.8 16.1 0.00 0.13 0.00 51 1016.0
20260503233014 18 148 3.2 12.9 0.00 0.13 0.00 52 1015.9
20260503231503 18 172 3.2 9.7 0.00 0.13 0.00 55 1016.0
20260503230100 18 114 3.2 12.9 0.00 0.13 0.00 56 1016.2
20260503224559 18 126 0.0 12.9 0.00 0.13 0.00 56 1016.2
20260503223059 18 162 1.6 6.4 0.00 0.13 0.00 58 1016.2
20260503221600 18 165 4.8 19.3 0.00 0.13 0.00 55 1016.3
20260503220042 18 360 1.6 8.0 0.00 0.13 0.00 54 1016.5
20260503214541 18 159 3.2 14.5 0.00 0.13 0.00 52 1016.6
20260503213042 18 120 3.2 14.5 0.00 0.13 0.00 53 1016.6
20260503211538 18 96 1.6 8.0 0.00 0.13 0.00 54 1016.7
20260503210028 18 163 1.6 12.9 0.00 0.13 0.00 54 1016.7
20260503204525 18 133 0.0 12.9 0.03 0.13 0.13 57 1016.8
20260503203023 18 240 3.2 11.3 0.03 0.13 0.13 60 1016.7
20260503201523 17 132 1.6 12.9 0.03 0.13 0.13 65 1016.7
20260503200019 18 162 1.6 6.4 0.03 0.13 0.13 67 1016.7
20260503194519 18 360 3.2 9.7 0.00 0.10 0.10 64 1016.8
20260503193117 18 113 0.0 9.7 0.00 0.10 0.10 61 1016.4
20260503191517 18 167 0.0 9.7 0.00 0.10 0.10 61 1016.3
20260503190010 18 121 0.0 6.4 0.00 0.10 0.10 60 1016.4
20260503184515 18 360 0.0 6.4 0.00 0.10 0.10 59 1016.4
20260503183011 19 141 1.6 12.9 0.00 0.10 0.10 60 1016.2
20260503181507 19 360 3.2 12.9 0.00 0.10 0.10 60 1015.9
20260503180002 19 93 3.2 6.4 0.00 0.10 0.10 60 1015.5
20260503174602 19 85 3.2 11.3 0.00 0.10 0.10 62 1015.3
20260503173110 19 263 1.6 12.9 0.00 0.10 0.10 63 1015.1
20260503171558 19 22 0.0 9.7 0.00 0.10 0.10 64 1015.0